Time,TemperatureF,DewpointF,PressureIn,WindDirection,WindDirectionDegrees,WindSpeedMPH,WindSpeedGustMPH,Humidity,HourlyPrecipIn,Conditions,Clouds,dailyrainin,SoftwareType,DateUTC
2013-03-30 00:00:00,66.9,56.8,30.01,NNW,333,3.0,7.0,70,0.00,,---,0.01,VWS V14.01,2013-03-30 05:00:00,
2013-03-30 00:03:00,66.9,56.8,30.01,NNW,336,3.0,4.0,70,0.00,,---,0.00,VWS V14.01,2013-03-30 05:03:00,
2013-03-30 00:06:00,66.9,56.8,30.02,NNW,334,3.0,4.0,70,0.00,,---,0.00,VWS V14.01,2013-03-30 05:06:00,
2013-03-30 00:25:00,66.7,57.4,30.02,NW,320,3.0,4.0,72,0.00,,---,0.00,VWS V14.01,2013-03-30 05:25:00,
2013-03-30 00:28:00,66.6,57.3,30.03,NW,309,4.0,6.0,72,0.00,,---,0.00,VWS V14.01,2013-03-30 05:28:00,
2013-03-30 00:41:00,64.5,56.8,30.01,NNW,348,1.0,13.0,76,0.00,,---,0.00,VWS V14.01,2013-03-30 05:41:00,
2013-03-30 00:44:00,64.0,55.9,30.00,North,5,0.0,13.0,75,0.00,,---,0.00,VWS V14.01,2013-03-30 05:44:00,
2013-03-30 00:47:00,63.6,55.9,30.00,NNE,28,3.0,13.0,76,0.00,,---,0.00,VWS V14.01,2013-03-30 05:47:00,
2013-03-30 00:50:00,63.0,56.4,29.99,East,85,5.0,13.0,79,0.00,,---,0.00,VWS V14.01,2013-03-30 05:50:00,
2013-03-30 00:53:00,62.3,56.1,29.99,ESE,122,3.0,13.0,80,0.00,,---,0.00,VWS V14.01,2013-03-30 05:53:00,
2013-03-30 00:59:00,61.5,56.0,30.00,ESE,112,2.0,13.0,82,0.00,,---,0.00,VWS V14.01,2013-03-30 05:59:00,
2013-03-30 01:02:00,61.1,55.9,30.00,ESE,115,2.0,3.0,83,0.00,,---,0.00,VWS V14.01,2013-03-30 06:02:00,
2013-03-30 01:05:00,60.8,55.6,30.01,ESE,103,1.0,4.0,83,0.00,,---,0.00,VWS V14.01,2013-03-30 06:05:00,
2013-03-30 01:08:00,60.7,56.2,30.01,East,97,0.0,4.0,85,0.00,,---,0.00,VWS V14.01,2013-03-30 06:08:00,
2013-03-30 01:11:00,60.5,56.0,30.01,SE,136,3.0,6.0,85,0.00,,---,0.00,VWS V14.01,2013-03-30 06:11:00,
2013-03-30 01:14:00,60.4,55.9,30.02,SE,141,0.0,6.0,85,0.00,,---,0.00,VWS V14.01,2013-03-30 06:14:00,
2013-03-30 01:17:00,60.3,56.1,30.02,NE,46,3.0,6.0,86,0.00,,---,0.00,VWS V14.01,2013-03-30 06:17:00,
2013-03-30 01:20:00,60.3,56.1,30.02,NNW,342,1.0,6.0,86,0.00,,---,0.00,VWS V14.01,2013-03-30 06:20:00,
2013-03-30 01:26:00,60.2,56.0,30.00,SSE,161,3.0,6.0,86,0.00,,---,0.00,VWS V14.01,2013-03-30 06:26:00,
2013-03-30 01:32:00,59.6,55.7,30.00,South,184,3.0,5.0,87,0.01,,---,0.01,VWS V14.01,2013-03-30 06:32:00,
2013-03-30 01:35:00,59.4,56.2,30.00,SW,226,6.0,7.0,89,0.01,,---,0.01,VWS V14.01,2013-03-30 06:35:00,
2013-03-30 01:41:00,59.2,56.3,29.98,SSW,204,7.0,9.0,90,0.01,,---,0.01,VWS V14.01,2013-03-30 06:41:00,
2013-03-30 01:47:00,59.5,56.0,29.95,SSW,195,7.0,16.0,88,0.01,,---,0.01,VWS V14.01,2013-03-30 06:47:00,
2013-03-30 01:50:00,59.7,55.8,29.95,SSW,207,9.0,16.0,87,0.01,,---,0.01,VWS V14.01,2013-03-30 06:50:00,
2013-03-30 01:53:00,60.0,56.1,29.94,South,190,15.0,19.0,87,0.01,,---,0.01,VWS V14.01,2013-03-30 06:53:00,
2013-03-30 01:56:00,60.5,56.6,29.93,SSW,203,10.0,19.0,87,0.01,,---,0.01,VWS V14.01,2013-03-30 06:56:00,
2013-03-30 02:02:00,61.1,57.2,29.92,SW,227,12.0,16.0,87,0.01,,---,0.01,VWS V14.01,2013-03-30 07:02:00,
2013-03-30 02:06:00,61.6,58.0,29.91,SSW,195,17.0,23.0,88,0.01,,---,0.01,VWS V14.01,2013-03-30 07:06:00,
2013-03-30 02:09:00,62.8,58.6,29.89,SSW,210,24.0,25.0,86,0.01,,---,0.01,VWS V14.01,2013-03-30 07:09:00,
2013-03-30 02:12:00,63.4,58.5,29.89,SSW,192,14.0,25.0,84,0.01,,---,0.01,VWS V14.01,2013-03-30 07:12:00,
2013-03-30 02:18:00,63.4,58.2,29.89,South,188,7.0,25.0,83,0.01,,---,0.01,VWS V14.01,2013-03-30 07:18:00,
2013-03-30 02:24:00,62.7,57.8,29.86,SSW,192,11.0,25.0,84,0.01,,---,0.01,VWS V14.01,2013-03-30 07:24:00,
2013-03-30 02:30:00,62.2,57.6,29.89,SSW,201,10.0,25.0,85,0.01,,---,0.01,VWS V14.01,2013-03-30 07:30:00,
2013-03-30 02:39:00,61.6,56.4,29.91,SSW,211,6.0,24.0,83,0.01,,---,0.02,VWS V14.01,2013-03-30 07:39:00,
2013-03-30 02:45:00,61.3,55.8,29.92,SSW,203,6.0,24.0,82,0.01,,---,0.02,VWS V14.01,2013-03-30 07:45:00,
2013-03-30 02:51:00,61.8,55.6,29.93,South,172,3.0,24.0,80,0.01,,---,0.02,VWS V14.01,2013-03-30 07:51:00,
2013-03-30 02:54:00,61.8,55.6,29.93,SSW,201,0.0,24.0,80,0.01,,---,0.02,VWS V14.01,2013-03-30 07:54:00,
2013-03-30 02:57:00,61.8,55.6,29.93,SSE,150,1.0,24.0,80,0.01,,---,0.02,VWS V14.01,2013-03-30 07:57:00,
2013-03-30 03:00:00,61.7,55.5,29.93,South,177,4.0,24.0,80,0.01,,---,0.02,VWS V14.01,2013-03-30 08:00:00,
2013-03-30 03:03:00,61.6,55.4,29.93,SSE,160,2.0,6.0,80,0.01,,---,0.02,VWS V14.01,2013-03-30 08:03:00,
2013-03-30 03:06:00,61.5,54.9,29.93,South,170,4.0,8.0,79,0.01,,---,0.02,VWS V14.01,2013-03-30 08:06:00,
2013-03-30 03:12:00,61.2,55.0,29.93,South,173,3.0,10.0,80,0.01,,---,0.02,VWS V14.01,2013-03-30 08:12:00,
2013-03-30 03:15:00,61.0,54.8,29.93,SSE,167,5.0,10.0,80,0.01,,---,0.02,VWS V14.01,2013-03-30 08:15:00,
2013-03-30 03:18:00,61.0,55.1,29.93,South,184,5.0,12.0,81,0.01,,---,0.02,VWS V14.01,2013-03-30 08:18:00,
2013-03-30 03:21:00,60.9,55.4,29.93,South,187,4.0,12.0,82,0.01,,---,0.02,VWS V14.01,2013-03-30 08:21:00,
2013-03-30 03:24:00,60.8,55.6,29.93,SSW,198,7.0,12.0,83,0.01,,---,0.02,VWS V14.01,2013-03-30 08:24:00,
2013-03-30 03:27:00,60.9,55.7,29.92,South,182,8.0,12.0,83,0.01,,---,0.02,VWS V14.01,2013-03-30 08:27:00,
2013-03-30 03:30:00,61.2,56.3,29.92,South,182,5.0,13.0,84,0.01,,---,0.02,VWS V14.01,2013-03-30 08:30:00,
2013-03-30 03:36:00,61.5,56.6,29.92,SSE,160,4.0,15.0,84,0.01,,---,0.02,VWS V14.01,2013-03-30 08:36:00,
2013-03-30 03:39:00,61.7,56.5,29.92,South,173,6.0,15.0,83,0.01,,---,0.02,VWS V14.01,2013-03-30 08:39:00,
2013-03-30 03:46:00,61.8,56.6,29.92,South,191,7.0,15.0,83,0.01,,---,0.02,VWS V14.01,2013-03-30 08:46:00,
2013-03-30 03:49:00,61.8,56.6,29.92,South,180,6.0,15.0,83,0.01,,---,0.02,VWS V14.01,2013-03-30 08:49:00,
2013-03-30 03:52:00,61.9,56.7,29.92,South,181,6.0,15.0,83,0.01,,---,0.02,VWS V14.01,2013-03-30 08:52:00,
2013-03-30 03:55:00,61.9,56.7,29.92,SSE,167,4.0,15.0,83,0.01,,---,0.02,VWS V14.01,2013-03-30 08:55:00,
2013-03-30 03:58:00,62.0,57.1,29.92,South,174,4.0,15.0,84,0.02,,---,0.03,VWS V14.01,2013-03-30 08:58:00,
2013-03-30 04:01:00,61.9,56.7,29.92,South,186,5.0,15.0,83,0.02,,---,0.03,VWS V14.01,2013-03-30 09:01:00,
2013-03-30 04:04:00,61.8,56.9,29.92,SSE,159,3.0,10.0,84,0.01,,---,0.03,VWS V14.01,2013-03-30 09:04:00,
2013-03-30 04:07:00,61.7,56.8,29.92,South,177,6.0,10.0,84,0.01,,---,0.03,VWS V14.01,2013-03-30 09:07:00,
2013-03-30 04:13:00,61.6,56.7,29.92,South,186,6.0,10.0,84,0.01,,---,0.03,VWS V14.01,2013-03-30 09:13:00,
2013-03-30 04:16:00,61.5,57.0,29.92,South,176,4.0,10.0,85,0.01,,---,0.03,VWS V14.01,2013-03-30 09:16:00,
2013-03-30 04:19:00,61.3,56.8,29.92,South,182,4.0,10.0,85,0.01,,---,0.03,VWS V14.01,2013-03-30 09:19:00,
2013-03-30 04:22:00,61.2,56.7,29.92,South,175,3.0,10.0,85,0.01,,---,0.03,VWS V14.01,2013-03-30 09:22:00,
2013-03-30 04:28:00,61.4,56.9,29.92,South,190,5.0,10.0,85,0.01,,---,0.03,VWS V14.01,2013-03-30 09:28:00,
2013-03-30 04:34:00,61.6,57.0,29.92,SSE,161,4.0,7.0,85,0.01,,---,0.03,VWS V14.01,2013-03-30 09:34:00,
2013-03-30 04:37:00,61.5,57.0,29.92,South,173,4.0,7.0,85,0.01,,---,0.03,VWS V14.01,2013-03-30 09:37:00,
2013-03-30 04:40:00,61.5,57.0,29.92,South,174,7.0,10.0,85,0.01,,---,0.03,VWS V14.01,2013-03-30 09:40:00,
2013-03-30 04:43:00,61.6,56.7,29.92,SSE,167,6.0,10.0,84,0.01,,---,0.03,VWS V14.01,2013-03-30 09:43:00,
2013-03-30 04:46:00,61.6,56.7,29.92,South,179,6.0,10.0,84,0.01,,---,0.03,VWS V14.01,2013-03-30 09:46:00,
2013-03-30 04:49:00,61.6,56.7,29.92,SSE,167,4.0,10.0,84,0.01,,---,0.03,VWS V14.01,2013-03-30 09:49:00,
2013-03-30 04:52:00,61.5,56.6,29.92,South,179,4.0,10.0,84,0.01,,---,0.03,VWS V14.01,2013-03-30 09:52:00,
2013-03-30 04:55:00,61.4,56.5,29.92,SSE,164,3.0,10.0,84,0.01,,---,0.03,VWS V14.01,2013-03-30 09:55:00,
2013-03-30 04:58:00,61.4,56.5,29.92,South,178,5.0,10.0,84,0.01,,---,0.03,VWS V14.01,2013-03-30 09:58:00,
2013-03-30 05:04:00,61.3,56.8,29.92,South,186,4.0,7.0,85,0.00,,---,0.03,VWS V14.01,2013-03-30 10:04:00,
2013-03-30 05:07:00,61.3,56.8,29.92,South,182,3.0,7.0,85,0.00,,---,0.03,VWS V14.01,2013-03-30 10:07:00,
2013-03-30 05:11:00,61.1,56.6,29.92,South,181,6.0,9.0,85,0.00,,---,0.03,VWS V14.01,2013-03-30 10:11:00,
2013-03-30 05:17:00,60.8,56.6,29.92,SSW,198,7.0,11.0,86,0.01,,---,0.04,VWS V14.01,2013-03-30 10:17:00,
2013-03-30 05:20:00,60.8,56.6,29.92,South,177,5.0,11.0,86,0.01,,---,0.04,VWS V14.01,2013-03-30 10:20:00,
2013-03-30 05:23:00,60.7,56.5,29.92,South,186,5.0,11.0,86,0.01,,---,0.04,VWS V14.01,2013-03-30 10:23:00,
2013-03-30 05:26:00,60.6,56.4,29.92,South,184,3.0,11.0,86,0.01,,---,0.04,VWS V14.01,2013-03-30 10:26:00,
2013-03-30 05:29:00,60.5,56.3,29.92,South,175,5.0,11.0,86,0.01,,---,0.04,VWS V14.01,2013-03-30 10:29:00,
2013-03-30 05:32:00,60.4,56.2,29.92,South,182,4.0,4.0,86,0.01,,---,0.04,VWS V14.01,2013-03-30 10:32:00,
2013-03-30 05:35:00,60.4,56.5,29.93,South,179,5.0,7.0,87,0.01,,---,0.04,VWS V14.01,2013-03-30 10:35:00,
2013-03-30 05:38:00,60.3,56.1,29.93,South,182,5.0,7.0,86,0.01,,---,0.04,VWS V14.01,2013-03-30 10:38:00,
2013-03-30 05:44:00,60.4,56.2,29.93,South,182,3.0,7.0,86,0.01,,---,0.04,VWS V14.01,2013-03-30 10:44:00,
2013-03-30 05:47:00,60.3,56.4,29.93,SSE,164,7.0,7.0,87,0.01,,---,0.04,VWS V14.01,2013-03-30 10:47:00,
2013-03-30 05:50:00,60.4,56.5,29.93,SSE,167,7.0,8.0,87,0.01,,---,0.04,VWS V14.01,2013-03-30 10:50:00,
2013-03-30 05:53:00,60.4,56.2,29.93,South,191,6.0,8.0,86,0.01,,---,0.04,VWS V14.01,2013-03-30 10:53:00,
2013-03-30 05:59:00,60.2,56.3,29.92,South,172,6.0,9.0,87,0.01,,---,0.04,VWS V14.01,2013-03-30 10:59:00,
2013-03-30 06:01:00,60.3,56.4,29.92,SSW,197,6.0,9.0,87,0.01,,---,0.04,VWS V14.01,2013-03-30 11:01:00,
2013-03-30 06:05:00,60.3,56.4,29.92,South,173,7.0,8.0,87,0.01,,---,0.04,VWS V14.01,2013-03-30 11:05:00,
2013-03-30 06:08:00,60.3,56.4,29.92,South,175,6.0,11.0,87,0.01,,---,0.04,VWS V14.01,2013-03-30 11:08:00,
2013-03-30 06:11:00,60.2,56.3,29.93,South,184,5.0,11.0,87,0.01,,---,0.04,VWS V14.01,2013-03-30 11:11:00,
2013-03-30 06:17:00,60.1,56.2,29.93,SSW,194,5.0,11.0,87,0.02,,---,0.05,VWS V14.01,2013-03-30 11:17:00,
2013-03-30 06:20:00,60.1,56.2,29.93,South,184,5.0,11.0,87,0.02,,---,0.05,VWS V14.01,2013-03-30 11:20:00,
2013-03-30 06:23:00,60.1,56.2,29.93,South,175,4.0,11.0,87,0.02,,---,0.05,VWS V14.01,2013-03-30 11:23:00,
2013-03-30 06:29:00,59.9,56.3,29.93,South,176,5.0,11.0,88,0.02,,---,0.05,VWS V14.01,2013-03-30 11:29:00,
2013-03-30 06:32:00,60.0,56.4,29.93,South,170,5.0,8.0,88,0.01,,---,0.05,VWS V14.01,2013-03-30 11:32:00,
2013-03-30 06:35:00,60.0,56.4,29.93,South,177,7.0,9.0,88,0.01,,---,0.05,VWS V14.01,2013-03-30 11:35:00,
2013-03-30 06:38:00,60.0,56.4,29.93,SSE,163,5.0,11.0,88,0.01,,---,0.05,VWS V14.01,2013-03-30 11:38:00,
2013-03-30 06:42:00,60.0,56.1,29.93,South,174,4.0,11.0,87,0.01,,---,0.05,VWS V14.01,2013-03-30 11:42:00,
2013-03-30 06:45:00,59.9,56.3,29.93,South,180,4.0,11.0,88,0.01,,---,0.05,VWS V14.01,2013-03-30 11:45:00,
2013-03-30 06:48:00,59.9,56.3,29.93,South,173,3.0,11.0,88,0.01,,---,0.05,VWS V14.01,2013-03-30 11:48:00,
2013-03-30 06:51:00,59.8,56.2,29.93,SSE,150,4.0,11.0,88,0.02,,---,0.06,VWS V14.01,2013-03-30 11:51:00,
2013-03-30 06:54:00,59.8,56.2,29.93,South,183,6.0,11.0,88,0.02,,---,0.06,VWS V14.01,2013-03-30 11:54:00,
2013-03-30 07:00:00,59.8,56.2,29.93,SSE,167,3.0,11.0,88,0.02,,---,0.06,VWS V14.01,2013-03-30 12:00:00,
2013-03-30 07:01:00,59.7,56.2,29.93,South,169,4.0,11.0,88,0.02,,---,0.06,VWS V14.01,2013-03-30 12:01:00,
2013-03-30 07:09:00,59.6,56.0,29.94,SSE,165,3.0,8.0,88,0.02,,---,0.06,VWS V14.01,2013-03-30 12:09:00,
2013-03-30 07:12:00,59.6,56.0,29.94,South,180,5.0,9.0,88,0.03,,---,0.07,VWS V14.01,2013-03-30 12:12:00,
2013-03-30 07:15:00,59.5,56.0,29.94,South,180,5.0,9.0,88,0.03,,---,0.07,VWS V14.01,2013-03-30 12:15:00,
2013-03-30 07:18:00,59.4,55.8,29.94,SSE,168,3.0,9.0,88,0.03,,---,0.07,VWS V14.01,2013-03-30 12:18:00,
2013-03-30 07:21:00,59.4,55.8,29.93,South,173,4.0,9.0,88,0.03,,---,0.07,VWS V14.01,2013-03-30 12:21:00,
2013-03-30 07:24:00,59.3,55.8,29.94,SSE,166,5.0,9.0,88,0.03,,---,0.07,VWS V14.01,2013-03-30 12:24:00,
2013-03-30 07:27:00,59.3,55.8,29.94,South,180,4.0,9.0,88,0.03,,---,0.07,VWS V14.01,2013-03-30 12:27:00,
2013-03-30 07:30:00,59.3,56.1,29.94,SSW,197,5.0,9.0,89,0.04,,---,0.08,VWS V14.01,2013-03-30 12:30:00,
2013-03-30 07:31:00,59.3,56.1,29.94,South,184,4.0,9.0,89,0.04,,---,0.08,VWS V14.01,2013-03-30 12:31:00,
2013-03-30 07:36:00,59.2,56.0,29.93,South,178,3.0,7.0,89,0.03,,---,0.08,VWS V14.01,2013-03-30 12:36:00,
2013-03-30 07:42:00,59.0,55.8,29.94,South,186,3.0,7.0,89,0.03,,---,0.08,VWS V14.01,2013-03-30 12:42:00,
2013-03-30 07:45:00,59.0,56.1,29.94,South,186,4.0,7.0,90,0.03,,---,0.08,VWS V14.01,2013-03-30 12:45:00,
2013-03-30 07:48:00,59.0,56.1,29.94,SSE,166,5.0,7.0,90,0.03,,---,0.08,VWS V14.01,2013-03-30 12:48:00,
2013-03-30 07:51:00,59.1,56.2,29.94,South,175,5.0,7.0,90,0.04,,---,0.09,VWS V14.01,2013-03-30 12:51:00,
2013-03-30 07:54:00,59.3,56.4,29.94,South,176,5.0,7.0,90,0.04,,---,0.09,VWS V14.01,2013-03-30 12:54:00,
2013-03-30 08:00:00,59.6,56.7,29.94,South,180,6.0,9.0,90,0.04,,---,0.09,VWS V14.01,2013-03-30 13:00:00,
2013-03-30 08:01:00,59.6,56.7,29.94,SSE,160,7.0,9.0,90,0.04,,---,0.09,VWS V14.01,2013-03-30 13:01:00,
2013-03-30 08:04:00,59.8,56.9,29.94,South,181,4.0,8.0,90,0.04,,---,0.10,VWS V14.01,2013-03-30 13:04:00,
2013-03-30 08:10:00,60.2,57.0,29.94,SSW,194,7.0,9.0,89,0.04,,---,0.10,VWS V14.01,2013-03-30 13:10:00,
2013-03-30 08:16:00,60.6,57.3,29.94,South,180,4.0,9.0,89,0.04,,---,0.10,VWS V14.01,2013-03-30 13:16:00,
2013-03-30 08:19:00,60.8,57.5,29.94,SSW,205,7.0,10.0,89,0.04,,---,0.10,VWS V14.01,2013-03-30 13:19:00,
2013-03-30 08:22:00,61.0,57.7,29.94,South,184,7.0,11.0,89,0.05,,---,0.11,VWS V14.01,2013-03-30 13:22:00,
2013-03-30 08:25:00,61.2,57.6,29.94,SSW,194,6.0,11.0,88,0.05,,---,0.11,VWS V14.01,2013-03-30 13:25:00,
2013-03-30 08:31:00,61.6,58.0,29.94,South,191,9.0,11.0,88,0.05,,---,0.11,VWS V14.01,2013-03-30 13:31:00,
2013-03-30 08:37:00,62.0,58.1,29.94,SSW,207,9.0,12.0,87,0.04,,---,0.12,VWS V14.01,2013-03-30 13:37:00,
2013-03-30 08:40:00,62.2,58.3,29.94,South,175,5.0,12.0,87,0.04,,---,0.12,VWS V14.01,2013-03-30 13:40:00,
2013-03-30 08:49:00,62.8,58.6,29.94,South,189,6.0,12.0,86,0.04,,---,0.12,VWS V14.01,2013-03-30 13:49:00,
2013-03-30 08:52:00,63.1,58.8,29.94,SSW,192,9.0,12.0,86,0.05,,---,0.13,VWS V14.01,2013-03-30 13:52:00,
2013-03-30 08:55:00,63.2,59.0,29.94,South,176,4.0,12.0,86,0.05,,---,0.13,VWS V14.01,2013-03-30 13:55:00,
2013-03-30 09:01:00,63.6,59.0,29.94,SSW,213,10.0,12.0,85,0.04,,---,0.13,VWS V14.01,2013-03-30 14:01:00,
2013-03-30 09:07:00,64.1,59.2,29.94,South,185,9.0,12.0,84,0.04,,---,0.13,VWS V14.01,2013-03-30 14:07:00,
2013-03-30 09:10:00,64.4,59.8,29.94,SSW,199,11.0,12.0,85,0.04,,---,0.13,VWS V14.01,2013-03-30 14:10:00,
2013-03-30 09:13:00,64.6,59.7,29.94,South,179,8.0,13.0,84,0.05,,---,0.14,VWS V14.01,2013-03-30 14:13:00,
2013-03-30 09:19:00,65.0,60.0,29.95,SW,225,9.0,13.0,84,0.05,,---,0.14,VWS V14.01,2013-03-30 14:19:00,
2013-03-30 09:22:00,65.2,59.9,29.95,South,181,7.0,13.0,83,0.05,,---,0.14,VWS V14.01,2013-03-30 14:22:00,
2013-03-30 09:25:00,65.5,59.9,29.95,South,184,9.0,13.0,82,0.05,,---,0.14,VWS V14.01,2013-03-30 14:25:00,
2013-03-30 09:28:00,65.7,60.1,29.95,SSW,212,9.0,14.0,82,0.05,,---,0.14,VWS V14.01,2013-03-30 14:28:00,
2013-03-30 09:35:00,65.8,59.8,29.95,SSW,209,11.0,15.0,81,0.03,,---,0.14,VWS V14.01,2013-03-30 14:35:00,
2013-03-30 09:41:00,66.1,60.1,29.95,SSW,197,10.0,15.0,81,0.04,,---,0.15,VWS V14.01,2013-03-30 14:41:00,
2013-03-30 09:44:00,66.1,60.1,29.95,SSW,207,10.0,15.0,81,0.04,,---,0.15,VWS V14.01,2013-03-30 14:44:00,
2013-03-30 09:50:00,66.3,60.3,29.95,SW,219,7.0,15.0,81,0.04,,---,0.15,VWS V14.01,2013-03-30 14:50:00,
2013-03-30 09:53:00,66.4,60.4,29.95,SSW,197,8.0,15.0,81,0.04,,---,0.15,VWS V14.01,2013-03-30 14:53:00,
2013-03-30 09:56:00,66.6,60.6,29.95,South,184,8.0,15.0,81,0.04,,---,0.15,VWS V14.01,2013-03-30 14:56:00,
2013-03-30 09:59:00,66.7,60.3,29.95,SW,215,9.0,15.0,80,0.04,,---,0.15,VWS V14.01,2013-03-30 14:59:00,
2013-03-30 10:01:00,66.8,60.4,29.95,SW,217,12.0,16.0,80,0.04,,---,0.15,VWS V14.01,2013-03-30 15:01:00,
2013-03-30 10:02:00,66.7,60.3,29.95,South,185,9.0,14.0,80,0.02,,---,0.15,VWS V14.01,2013-03-30 15:02:00,
2013-03-30 10:08:00,66.8,60.4,29.95,SW,236,16.0,16.0,80,0.02,,---,0.15,VWS V14.01,2013-03-30 15:08:00,
2013-03-30 10:14:00,66.9,60.9,29.94,SSW,211,12.0,16.0,81,0.02,,---,0.15,VWS V14.01,2013-03-30 15:14:00,
2013-03-30 10:17:00,66.9,60.5,29.95,SW,227,8.0,16.0,80,0.02,,---,0.15,VWS V14.01,2013-03-30 15:17:00,
2013-03-30 10:20:00,66.9,60.5,29.95,SW,234,10.0,16.0,80,0.02,,---,0.15,VWS V14.01,2013-03-30 15:20:00,
2013-03-30 10:23:00,67.0,60.6,29.95,SSW,213,8.0,16.0,80,0.02,,---,0.15,VWS V14.01,2013-03-30 15:23:00,
2013-03-30 10:26:00,67.1,61.1,29.95,SW,216,8.0,16.0,81,0.02,,---,0.15,VWS V14.01,2013-03-30 15:26:00,
2013-03-30 10:29:00,67.2,60.8,29.95,SW,232,9.0,16.0,80,0.02,,---,0.15,VWS V14.01,2013-03-30 15:29:00,
2013-03-30 10:32:00,67.3,60.9,29.95,SSW,213,8.0,13.0,80,0.01,,---,0.15,VWS V14.01,2013-03-30 15:32:00,
2013-03-30 10:35:00,67.5,61.1,29.95,SW,216,9.0,15.0,80,0.01,,---,0.15,VWS V14.01,2013-03-30 15:35:00,
2013-03-30 10:38:00,67.5,61.1,29.95,SW,215,8.0,15.0,80,0.01,,---,0.15,VWS V14.01,2013-03-30 15:38:00,
2013-03-30 10:44:00,67.5,61.1,29.94,SSW,209,11.0,16.0,80,0.01,,---,0.15,VWS V14.01,2013-03-30 15:44:00,
2013-03-30 10:47:00,67.7,61.0,29.95,SW,228,8.0,16.0,79,0.01,,---,0.15,VWS V14.01,2013-03-30 15:47:00,
2013-03-30 10:53:00,68.2,61.5,29.94,SW,221,10.0,16.0,79,0.01,,---,0.15,VWS V14.01,2013-03-30 15:53:00,
2013-03-30 10:59:00,68.4,61.3,29.95,SSW,194,7.0,17.0,78,0.01,,---,0.15,VWS V14.01,2013-03-30 15:59:00,
2013-03-30 11:02:00,68.5,61.7,29.94,SSW,193,7.0,11.0,79,0.00,,---,0.15,VWS V14.01,2013-03-30 16:02:00,
2013-03-30 11:06:00,68.6,61.5,29.94,SW,230,7.0,12.0,78,0.00,,---,0.15,VWS V14.01,2013-03-30 16:06:00,
2013-03-30 11:09:00,68.7,61.6,29.94,SW,223,10.0,14.0,78,0.00,,---,0.15,VWS V14.01,2013-03-30 16:09:00,
2013-03-30 11:12:00,68.6,61.1,29.94,SW,217,12.0,14.0,77,0.00,,---,0.15,VWS V14.01,2013-03-30 16:12:00,
2013-03-30 11:15:00,69.0,61.5,29.94,SSW,209,8.0,15.0,77,0.00,,---,0.15,VWS V14.01,2013-03-30 16:15:00,
2013-03-30 11:18:00,69.1,61.6,29.94,SW,234,12.0,16.0,77,0.00,,---,0.15,VWS V14.01,2013-03-30 16:18:00,
2013-03-30 11:21:00,69.5,62.3,29.94,SSW,204,6.0,16.0,78,0.00,,---,0.15,VWS V14.01,2013-03-30 16:21:00,
2013-03-30 11:24:00,70.1,62.6,29.94,SW,223,6.0,16.0,77,0.00,,---,0.15,VWS V14.01,2013-03-30 16:24:00,
2013-03-30 11:30:00,71.3,63.3,29.94,SW,214,10.0,16.0,76,0.00,,---,0.15,VWS V14.01,2013-03-30 16:30:00,
2013-03-30 11:31:00,71.3,62.6,29.94,WSW,240,8.0,16.0,74,0.00,,---,0.15,VWS V14.01,2013-03-30 16:31:00,
2013-03-30 11:33:00,71.2,61.7,29.93,SW,231,9.0,12.0,72,0.00,,---,0.15,VWS V14.01,2013-03-30 16:33:00,
2013-03-30 11:39:00,72.2,63.1,29.93,SW,225,10.0,12.0,73,0.00,,---,0.15,VWS V14.01,2013-03-30 16:39:00,
2013-03-30 11:42:00,72.3,63.2,29.93,SSW,200,4.0,15.0,73,0.00,,---,0.15,VWS V14.01,2013-03-30 16:42:00,
2013-03-30 11:48:00,72.0,62.1,29.92,SSW,213,8.0,15.0,71,0.00,,---,0.15,VWS V14.01,2013-03-30 16:48:00,
2013-03-30 11:51:00,71.8,61.9,29.92,SSW,198,7.0,15.0,71,0.00,,---,0.15,VWS V14.01,2013-03-30 16:51:00,
2013-03-30 11:54:00,72.0,62.1,29.92,SW,225,12.0,15.0,71,0.00,,---,0.15,VWS V14.01,2013-03-30 16:54:00,
2013-03-30 11:57:00,72.0,62.5,29.92,WSW,242,10.0,17.0,72,0.00,,---,0.15,VWS V14.01,2013-03-30 16:57:00,
2013-03-30 12:03:00,72.3,62.8,29.92,SW,223,12.0,16.0,72,0.00,,---,0.15,VWS V14.01,2013-03-30 17:03:00,
2013-03-30 12:06:00,72.8,62.0,29.92,SW,221,12.0,16.0,69,0.00,,---,0.15,VWS V14.01,2013-03-30 17:06:00,
2013-03-30 12:09:00,72.5,63.4,29.92,SW,229,9.0,16.0,73,0.00,,---,0.15,VWS V14.01,2013-03-30 17:09:00,
2013-03-30 12:12:00,73.0,62.2,29.92,SSW,207,13.0,16.0,69,0.00,,---,0.15,VWS V14.01,2013-03-30 17:12:00,
2013-03-30 12:15:00,72.9,62.1,29.92,SSW,213,9.0,16.0,69,0.00,,---,0.15,VWS V14.01,2013-03-30 17:15:00,
2013-03-30 12:18:00,73.2,62.4,29.92,SW,230,10.0,16.0,69,0.00,,---,0.15,VWS V14.01,2013-03-30 17:18:00,
2013-03-30 12:21:00,73.4,62.2,29.92,SSW,202,10.0,16.0,68,0.00,,---,0.15,VWS V14.01,2013-03-30 17:21:00,
2013-03-30 12:24:00,73.9,62.7,29.92,South,190,8.0,16.0,68,0.00,,---,0.15,VWS V14.01,2013-03-30 17:24:00,
2013-03-30 12:27:00,74.5,62.8,29.91,SSW,199,9.0,16.0,67,0.00,,---,0.15,VWS V14.01,2013-03-30 17:27:00,
2013-03-30 12:30:00,74.8,62.7,29.91,SW,231,8.0,16.0,66,0.00,,---,0.15,VWS V14.01,2013-03-30 17:30:00,
2013-03-30 12:31:00,74.8,62.7,29.91,SW,221,14.0,16.0,66,0.00,,---,0.15,VWS V14.01,2013-03-30 17:31:00,
2013-03-30 12:36:00,74.8,62.3,29.91,SW,232,10.0,15.0,65,0.00,,---,0.15,VWS V14.01,2013-03-30 17:36:00,
2013-03-30 12:40:00,75.2,62.2,29.91,SSW,204,8.0,15.0,64,0.00,,---,0.15,VWS V14.01,2013-03-30 17:40:00,
2013-03-30 12:43:00,75.3,62.7,29.91,SSW,205,7.0,15.0,65,0.00,,---,0.15,VWS V14.01,2013-03-30 17:43:00,
2013-03-30 12:46:00,75.5,62.9,29.91,SSW,209,10.0,15.0,65,0.00,,---,0.15,VWS V14.01,2013-03-30 17:46:00,
2013-03-30 12:49:00,76.0,62.5,29.90,SSW,208,8.0,15.0,63,0.00,,---,0.15,VWS V14.01,2013-03-30 17:49:00,
2013-03-30 12:52:00,76.5,63.0,29.90,SSW,202,6.0,15.0,63,0.00,,---,0.15,VWS V14.01,2013-03-30 17:52:00,
2013-03-30 12:55:00,76.7,63.2,29.90,SW,229,9.0,15.0,63,0.00,,---,0.15,VWS V14.01,2013-03-30 17:55:00,
2013-03-30 12:58:00,76.4,62.4,29.90,SW,222,9.0,16.0,62,0.00,,---,0.15,VWS V14.01,2013-03-30 17:58:00,
2013-03-30 13:01:00,76.5,62.1,29.90,South,178,7.0,16.0,61,0.01,,---,0.16,VWS V14.01,2013-03-30 18:01:00,
2013-03-30 13:07:00,76.9,62.4,29.90,SW,234,9.0,16.0,61,0.01,,---,0.16,VWS V14.01,2013-03-30 18:07:00,
2013-03-30 13:10:00,77.1,63.1,29.89,WSW,238,11.0,16.0,62,0.01,,---,0.16,VWS V14.01,2013-03-30 18:10:00,
2013-03-30 13:19:00,77.8,61.9,29.89,SSW,202,10.0,16.0,58,0.01,,---,0.16,VWS V14.01,2013-03-30 18:19:00,
2013-03-30 13:22:00,77.8,61.9,29.89,SSW,198,3.0,16.0,58,0.01,,---,0.16,VWS V14.01,2013-03-30 18:22:00,
2013-03-30 13:25:00,77.9,62.0,29.89,SSW,204,3.0,16.0,58,0.01,,---,0.16,VWS V14.01,2013-03-30 18:25:00,
2013-03-30 13:34:00,79.3,61.8,29.89,SW,220,8.0,16.0,55,0.01,,---,0.16,VWS V14.01,2013-03-30 18:34:00,
2013-03-30 13:40:00,78.9,62.4,29.89,WSW,238,10.0,16.0,57,0.01,,---,0.16,VWS V14.01,2013-03-30 18:40:00,
2013-03-30 13:43:00,78.8,62.3,29.88,SW,226,5.0,16.0,57,0.01,,---,0.16,VWS V14.01,2013-03-30 18:43:00,
2013-03-30 13:46:00,78.8,62.3,29.88,SW,234,8.0,16.0,57,0.01,,---,0.16,VWS V14.01,2013-03-30 18:46:00,
2013-03-30 13:49:00,79.6,61.5,29.88,SW,234,5.0,16.0,54,0.01,,---,0.16,VWS V14.01,2013-03-30 18:49:00,
2013-03-30 13:52:00,79.9,63.3,29.88,SW,229,6.0,16.0,57,0.01,,---,0.16,VWS V14.01,2013-03-30 18:52:00,
2013-03-30 13:56:00,80.0,61.3,29.88,West,259,1.0,16.0,53,0.01,,---,0.16,VWS V14.01,2013-03-30 18:56:00,
2013-03-30 13:59:00,80.1,61.4,29.87,SSW,192,6.0,16.0,53,0.01,,---,0.16,VWS V14.01,2013-03-30 18:59:00,
2013-03-30 14:01:00,80.2,62.1,29.87,SSW,194,9.0,16.0,54,0.01,,---,0.16,VWS V14.01,2013-03-30 19:01:00,
2013-03-30 14:02:00,80.2,63.1,29.87,SSW,205,8.0,9.0,56,0.00,,---,0.16,VWS V14.01,2013-03-30 19:02:00,
2013-03-30 14:05:00,79.9,61.3,29.87,SW,229,5.0,12.0,53,0.00,,---,0.16,VWS V14.01,2013-03-30 19:05:00,
2013-03-30 14:14:00,80.5,61.8,29.86,SSW,207,5.0,14.0,53,0.00,,---,0.16,VWS V14.01,2013-03-30 19:14:00,
2013-03-30 14:17:00,81.0,62.8,29.86,SW,232,12.0,15.0,54,0.00,,---,0.16,VWS V14.01,2013-03-30 19:17:00,
2013-03-30 14:23:00,80.9,61.6,29.86,SW,230,4.0,15.0,52,0.00,,---,0.16,VWS V14.01,2013-03-30 19:23:00,
2013-03-30 14:29:00,80.8,62.1,29.86,SSW,209,8.0,15.0,53,0.00,,---,0.16,VWS V14.01,2013-03-30 19:29:00,
2013-03-30 14:32:00,80.9,61.6,29.86,South,180,1.0,6.0,52,0.00,,---,0.16,VWS V14.01,2013-03-30 19:32:00,
2013-03-30 14:35:00,80.7,61.5,29.85,SW,221,5.0,8.0,52,0.00,,---,0.16,VWS V14.01,2013-03-30 19:35:00,
2013-03-30 14:38:00,81.1,61.8,29.85,WSW,238,4.0,12.0,52,0.00,,---,0.16,VWS V14.01,2013-03-30 19:38:00,
2013-03-30 14:44:00,81.8,61.4,29.85,SW,225,9.0,13.0,50,0.00,,---,0.16,VWS V14.01,2013-03-30 19:44:00,
2013-03-30 14:47:00,81.5,60.5,29.85,NW,319,4.0,13.0,49,0.00,,---,0.16,VWS V14.01,2013-03-30 19:47:00,
2013-03-30 14:50:00,81.8,61.9,29.85,SSW,208,7.0,13.0,51,0.00,,---,0.16,VWS V14.01,2013-03-30 19:50:00,
2013-03-30 14:53:00,82.7,61.0,29.85,SW,223,5.0,13.0,48,0.00,,---,0.16,VWS V14.01,2013-03-30 19:53:00,
2013-03-30 14:56:00,82.9,60.6,29.84,SSW,196,7.0,15.0,47,0.00,,---,0.16,VWS V14.01,2013-03-30 19:56:00,
2013-03-30 14:59:00,81.9,60.9,29.84,SW,234,7.0,15.0,49,0.00,,---,0.16,VWS V14.01,2013-03-30 19:59:00,
2013-03-30 15:01:00,81.9,60.9,29.84,SW,224,2.0,15.0,49,0.00,,---,0.16,VWS V14.01,2013-03-30 20:01:00,
2013-03-30 15:05:00,82.5,61.4,29.84,SW,222,10.0,15.0,49,0.00,,---,0.16,VWS V14.01,2013-03-30 20:05:00,
2013-03-30 15:08:00,82.8,60.5,29.84,SW,218,4.0,15.0,47,0.00,,---,0.16,VWS V14.01,2013-03-30 20:08:00,
2013-03-30 15:15:00,82.4,60.8,29.83,SSW,211,3.0,15.0,48,0.00,,---,0.16,VWS V14.01,2013-03-30 20:15:00,
2013-03-30 15:18:00,82.7,61.6,29.83,SW,215,6.0,15.0,49,0.00,,---,0.16,VWS V14.01,2013-03-30 20:18:00,
2013-03-30 15:21:00,82.8,60.5,29.83,WSW,256,6.0,15.0,47,0.00,,---,0.16,VWS V14.01,2013-03-30 20:21:00,
2013-03-30 15:24:00,82.6,60.9,29.83,WNW,284,6.0,15.0,48,0.00,,---,0.16,VWS V14.01,2013-03-30 20:24:00,
2013-03-30 15:27:00,82.8,60.5,29.83,SSW,194,12.0,15.0,47,0.00,,---,0.16,VWS V14.01,2013-03-30 20:27:00,
2013-03-30 15:30:00,83.2,60.3,29.83,SW,217,10.0,16.0,46,0.00,,---,0.16,VWS V14.01,2013-03-30 20:30:00,
2013-03-30 15:33:00,83.3,60.4,29.83,SSW,200,5.0,10.0,46,0.00,,---,0.16,VWS V14.01,2013-03-30 20:33:00,
2013-03-30 15:39:00,83.4,60.5,29.82,West,265,9.0,11.0,46,0.00,,---,0.16,VWS V14.01,2013-03-30 20:39:00,
2013-03-30 15:45:00,83.2,59.7,29.82,SSW,205,7.0,15.0,45,0.00,,---,0.16,VWS V14.01,2013-03-30 20:45:00,
2013-03-30 15:48:00,84.0,59.8,29.82,SW,223,8.0,15.0,44,0.00,,---,0.16,VWS V14.01,2013-03-30 20:48:00,
2013-03-30 15:54:00,83.6,60.0,29.82,SW,215,2.0,15.0,45,0.00,,---,0.16,VWS V14.01,2013-03-30 20:54:00,
2013-03-30 15:57:00,83.6,59.4,29.82,WSW,253,10.0,15.0,44,0.00,,---,0.16,VWS V14.01,2013-03-30 20:57:00,
2013-03-30 16:00:00,83.6,60.0,29.82,WNW,288,7.0,15.0,45,0.00,,---,0.16,VWS V14.01,2013-03-30 21:00:00,
2013-03-30 16:03:00,83.6,59.4,29.81,SSW,202,4.0,10.0,44,0.00,,---,0.16,VWS V14.01,2013-03-30 21:03:00,
2013-03-30 16:06:00,83.2,60.3,29.81,South,188,5.0,10.0,46,0.00,,---,0.16,VWS V14.01,2013-03-30 21:06:00,
2013-03-30 16:09:00,83.3,60.4,29.81,South,183,3.0,10.0,46,0.00,,---,0.16,VWS V14.01,2013-03-30 21:09:00,
2013-03-30 16:12:00,83.7,60.7,29.81,SW,215,4.0,10.0,46,0.00,,---,0.16,VWS V14.01,2013-03-30 21:12:00,
2013-03-30 16:15:00,84.2,60.0,29.81,SSE,155,4.0,10.0,44,0.00,,---,0.16,VWS V14.01,2013-03-30 21:15:00,
2013-03-30 16:18:00,84.2,59.3,29.81,NW,310,5.0,10.0,43,0.00,,---,0.16,VWS V14.01,2013-03-30 21:18:00,
2013-03-30 16:21:00,84.1,58.5,29.81,WSW,252,7.0,10.0,42,0.00,,---,0.16,VWS V14.01,2013-03-30 21:21:00,
2013-03-30 16:28:00,83.4,58.6,29.80,SW,216,5.0,10.0,43,0.00,,---,0.16,VWS V14.01,2013-03-30 21:28:00,
2013-03-30 16:34:00,84.5,58.9,29.80,SSW,197,8.0,10.0,42,0.00,,---,0.16,VWS V14.01,2013-03-30 21:34:00,
2013-03-30 16:40:00,85.0,58.0,29.80,SW,221,3.0,10.0,40,0.00,,---,0.16,VWS V14.01,2013-03-30 21:40:00,
2013-03-30 16:43:00,84.8,57.8,29.79,WSW,246,10.0,12.0,40,0.00,,---,0.16,VWS V14.01,2013-03-30 21:43:00,
2013-03-30 16:46:00,84.6,57.6,29.79,SW,227,6.0,13.0,40,0.00,,---,0.16,VWS V14.01,2013-03-30 21:46:00,
2013-03-30 16:49:00,85.1,58.1,29.79,South,175,2.0,13.0,40,0.00,,---,0.16,VWS V14.01,2013-03-30 21:49:00,
2013-03-30 16:52:00,85.3,57.6,29.79,SSW,200,6.0,13.0,39,0.00,,---,0.16,VWS V14.01,2013-03-30 21:52:00,
2013-03-30 16:55:00,85.5,58.5,29.79,SSW,202,7.0,13.0,40,0.00,,---,0.16,VWS V14.01,2013-03-30 21:55:00,
2013-03-30 16:58:00,85.8,58.0,29.79,SSW,193,7.0,13.0,39,0.00,,---,0.16,VWS V14.01,2013-03-30 21:58:00,
2013-03-30 17:04:00,85.9,58.1,29.79,SSE,150,2.0,8.0,39,0.00,,---,0.16,VWS V14.01,2013-03-30 22:04:00,
2013-03-30 17:07:00,86.1,57.5,29.79,SSW,200,0.0,9.0,38,0.00,,---,0.16,VWS V14.01,2013-03-30 22:07:00,
2013-03-30 17:13:00,86.6,58.0,29.78,SW,223,5.0,9.0,38,0.00,,---,0.16,VWS V14.01,2013-03-30 22:13:00,
2013-03-30 17:16:00,86.7,58.1,29.78,South,178,3.0,12.0,38,0.00,,---,0.16,VWS V14.01,2013-03-30 22:16:00,
2013-03-30 17:22:00,86.6,58.0,29.78,SSW,202,5.0,12.0,38,0.00,,---,0.16,VWS V14.01,2013-03-30 22:22:00,
2013-03-30 17:25:00,86.6,57.2,29.78,SSW,199,5.0,12.0,37,0.00,,---,0.16,VWS V14.01,2013-03-30 22:25:00,
2013-03-30 17:28:00,86.5,57.9,29.78,SSW,198,7.0,12.0,38,0.00,,---,0.16,VWS V14.01,2013-03-30 22:28:00,
2013-03-30 17:31:00,86.5,57.9,29.78,SSW,208,5.0,6.0,38,0.00,,---,0.16,VWS V14.01,2013-03-30 22:31:00,
2013-03-30 17:34:00,86.7,58.1,29.78,WSW,242,6.0,8.0,38,0.00,,---,0.16,VWS V14.01,2013-03-30 22:34:00,
2013-03-30 17:40:00,86.6,58.0,29.77,SSE,159,2.0,12.0,38,0.00,,---,0.16,VWS V14.01,2013-03-30 22:40:00,
2013-03-30 17:43:00,86.9,58.3,29.77,SW,215,7.0,12.0,38,0.00,,---,0.16,VWS V14.01,2013-03-30 22:43:00,
2013-03-30 17:46:00,86.7,57.3,29.77,SW,230,3.0,12.0,37,0.00,,---,0.16,VWS V14.01,2013-03-30 22:46:00,
2013-03-30 17:49:00,86.5,57.2,29.77,SSW,200,2.0,12.0,37,0.00,,---,0.16,VWS V14.01,2013-03-30 22:49:00,
2013-03-30 17:52:00,86.5,57.9,29.77,WSW,242,4.0,12.0,38,0.00,,---,0.16,VWS V14.01,2013-03-30 22:52:00,
2013-03-30 17:55:00,86.4,57.8,29.77,SW,224,7.0,12.0,38,0.00,,---,0.16,VWS V14.01,2013-03-30 22:55:00,
2013-03-30 17:58:00,86.2,58.4,29.77,SSW,198,6.0,12.0,39,0.00,,---,0.16,VWS V14.01,2013-03-30 22:58:00,
2013-03-30 18:05:00,86.3,57.7,29.77,SSE,160,3.0,11.0,38,0.00,,---,0.16,VWS V14.01,2013-03-30 23:05:00,
2013-03-30 18:08:00,86.4,57.8,29.77,South,181,4.0,11.0,38,0.00,,---,0.16,VWS V14.01,2013-03-30 23:08:00,
2013-03-30 18:11:00,86.3,58.5,29.76,SSW,212,2.0,11.0,39,0.00,,---,0.16,VWS V14.01,2013-03-30 23:11:00,
2013-03-30 18:17:00,86.4,58.5,29.76,SE,140,3.0,11.0,39,0.00,,---,0.16,VWS V14.01,2013-03-30 23:17:00,
2013-03-30 18:20:00,86.3,57.0,29.76,SSE,168,0.0,11.0,37,0.00,,---,0.16,VWS V14.01,2013-03-30 23:20:00,
2013-03-30 18:23:00,86.3,57.7,29.76,SSW,205,5.0,11.0,38,0.00,,---,0.16,VWS V14.01,2013-03-30 23:23:00,
2013-03-30 18:29:00,86.0,58.2,29.76,SSW,196,3.0,11.0,39,0.00,,---,0.16,VWS V14.01,2013-03-30 23:29:00,
2013-03-30 18:35:00,85.6,58.5,29.76,SE,142,1.0,5.0,40,0.00,,---,0.16,VWS V14.01,2013-03-30 23:35:00,
2013-03-30 18:38:00,85.3,59.0,29.76,SE,130,5.0,8.0,41,0.00,,---,0.16,VWS V14.01,2013-03-30 23:38:00,
2013-03-30 18:41:00,84.8,58.5,29.76,ESE,120,3.0,8.0,41,0.00,,---,0.16,VWS V14.01,2013-03-30 23:41:00,
2013-03-30 18:44:00,84.4,58.8,29.76,ESE,105,4.0,8.0,42,0.00,,---,0.16,VWS V14.01,2013-03-30 23:44:00,
2013-03-30 18:50:00,83.8,58.9,29.76,ESE,114,3.0,8.0,43,0.00,,---,0.16,VWS V14.01,2013-03-30 23:50:00,
2013-03-30 18:53:00,83.4,59.2,29.76,ESE,110,5.0,8.0,44,0.00,,---,0.16,VWS V14.01,2013-03-30 23:53:00,
2013-03-30 18:59:00,82.6,59.1,29.76,ESE,117,2.0,8.0,45,0.00,,---,0.16,VWS V14.01,2013-03-30 23:59:00,
2013-03-30 19:01:00,82.5,58.4,29.76,ESE,117,2.0,8.0,44,0.00,,---,0.16,VWS V14.01,2013-03-31 00:01:00,
2013-03-30 19:08:00,81.8,59.0,29.76,SE,132,1.0,9.0,46,0.00,,---,0.16,VWS V14.01,2013-03-31 00:08:00,
2013-03-30 19:11:00,81.5,59.3,29.76,SE,132,3.0,9.0,47,0.00,,---,0.16,VWS V14.01,2013-03-31 00:11:00,
2013-03-30 19:17:00,80.7,59.2,29.76,SE,132,1.0,9.0,48,0.00,,---,0.16,VWS V14.01,2013-03-31 00:17:00,
2013-03-30 19:21:00,80.4,59.5,29.76,SE,132,2.0,9.0,49,0.00,,---,0.16,VWS V14.01,2013-03-31 00:21:00,
2013-03-30 19:24:00,80.0,59.1,29.76,SE,130,4.0,9.0,49,0.00,,---,0.16,VWS V14.01,2013-03-31 00:24:00,
2013-03-30 19:27:00,79.6,59.3,29.76,SE,132,2.0,9.0,50,0.00,,---,0.16,VWS V14.01,2013-03-31 00:27:00,
2013-03-30 19:30:00,79.3,59.6,29.76,SE,137,2.0,9.0,51,0.00,,---,0.16,VWS V14.01,2013-03-31 00:30:00,
2013-03-30 19:33:00,78.9,59.2,29.76,SE,136,2.0,5.0,51,0.00,,---,0.16,VWS V14.01,2013-03-31 00:33:00,
2013-03-30 19:36:00,78.7,59.1,29.76,SE,135,2.0,5.0,51,0.00,,---,0.16,VWS V14.01,2013-03-31 00:36:00,
2013-03-30 19:42:00,78.1,59.1,29.76,SSE,150,2.0,5.0,52,0.00,,---,0.16,VWS V14.01,2013-03-31 00:42:00,
2013-03-30 19:45:00,77.8,58.8,29.76,SE,143,3.0,5.0,52,0.00,,---,0.16,VWS V14.01,2013-03-31 00:45:00,
2013-03-30 19:48:00,77.5,58.5,29.76,SE,146,4.0,6.0,52,0.00,,---,0.16,VWS V14.01,2013-03-31 00:48:00,
2013-03-30 19:54:00,77.3,58.8,29.76,SE,138,9.0,11.0,53,0.00,,---,0.16,VWS V14.01,2013-03-31 00:54:00,
2013-03-30 19:57:00,77.3,58.8,29.76,SE,140,6.0,11.0,53,0.00,,---,0.16,VWS V14.01,2013-03-31 00:57:00,
2013-03-30 20:03:00,77.3,58.8,29.76,SSE,165,10.0,11.0,53,0.00,,---,0.16,VWS V14.01,2013-03-31 01:03:00,
2013-03-30 20:09:00,77.2,58.8,29.77,South,169,7.0,13.0,53,0.00,,---,0.16,VWS V14.01,2013-03-31 01:09:00,
2013-03-30 20:15:00,76.6,59.2,29.76,SSE,161,5.0,13.0,55,0.00,,---,0.16,VWS V14.01,2013-03-31 01:15:00,
2013-03-30 20:18:00,76.3,59.0,29.77,SSE,149,7.0,13.0,55,0.00,,---,0.16,VWS V14.01,2013-03-31 01:18:00,
2013-03-30 20:24:00,75.6,59.3,29.77,SE,140,3.0,13.0,57,0.00,,---,0.16,VWS V14.01,2013-03-31 01:24:00,
2013-03-30 20:27:00,75.4,59.1,29.77,SE,142,6.0,13.0,57,0.00,,---,0.16,VWS V14.01,2013-03-31 01:27:00,
2013-03-30 20:30:00,75.2,59.4,29.77,SE,142,5.0,13.0,58,0.00,,---,0.16,VWS V14.01,2013-03-31 01:30:00,
2013-03-30 20:33:00,75.0,59.2,29.77,SSE,161,6.0,10.0,58,0.00,,---,0.16,VWS V14.01,2013-03-31 01:33:00,
2013-03-30 20:39:00,74.5,59.2,29.78,SE,140,7.0,10.0,59,0.00,,---,0.16,VWS V14.01,2013-03-31 01:39:00,
2013-03-30 20:43:00,74.3,59.1,29.78,SE,140,5.0,10.0,59,0.00,,---,0.16,VWS V14.01,2013-03-31 01:43:00,
2013-03-30 20:49:00,73.9,59.2,29.78,SSE,150,7.0,10.0,60,0.00,,---,0.16,VWS V14.01,2013-03-31 01:49:00,
2013-03-30 20:52:00,73.7,59.4,29.78,SSE,155,5.0,10.0,61,0.00,,---,0.16,VWS V14.01,2013-03-31 01:52:00,
2013-03-30 20:55:00,73.6,59.3,29.78,SSE,167,5.0,10.0,61,0.00,,---,0.16,VWS V14.01,2013-03-31 01:55:00,
2013-03-30 20:58:00,73.4,59.2,29.78,SSE,155,6.0,10.0,61,0.00,,---,0.16,VWS V14.01,2013-03-31 01:58:00,
2013-03-30 21:01:00,73.3,59.0,29.78,SSE,159,6.0,10.0,61,0.00,,---,0.16,VWS V14.01,2013-03-31 02:01:00,
2013-03-30 21:04:00,73.2,58.5,29.78,SSE,164,5.0,9.0,60,0.00,,---,0.16,VWS V14.01,2013-03-31 02:04:00,
2013-03-30 21:07:00,73.1,58.9,29.79,SSE,153,4.0,9.0,61,0.00,,---,0.16,VWS V14.01,2013-03-31 02:07:00,
2013-03-30 21:10:00,72.9,58.7,29.79,SSE,161,4.0,10.0,61,0.00,,---,0.16,VWS V14.01,2013-03-31 02:10:00,
2013-03-30 21:13:00,72.7,58.5,29.79,SSE,163,5.0,10.0,61,0.00,,---,0.16,VWS V14.01,2013-03-31 02:13:00,
2013-03-30 21:19:00,72.2,58.0,29.79,SSE,149,1.0,10.0,61,0.00,,---,0.16,VWS V14.01,2013-03-31 02:19:00,
2013-03-30 21:25:00,71.8,57.6,29.80,SSE,156,3.0,10.0,61,0.00,,---,0.16,VWS V14.01,2013-03-31 02:25:00,
2013-03-30 21:28:00,71.5,57.8,29.80,SSE,149,6.0,10.0,62,0.00,,---,0.16,VWS V14.01,2013-03-31 02:28:00,
2013-03-30 21:31:00,71.4,57.7,29.80,SE,145,3.0,4.0,62,0.00,,---,0.16,VWS V14.01,2013-03-31 02:31:00,
2013-03-30 21:34:00,71.2,57.5,29.80,SE,146,3.0,6.0,62,0.00,,---,0.16,VWS V14.01,2013-03-31 02:34:00,
2013-03-30 21:40:00,70.8,58.0,29.80,SSE,167,4.0,6.0,64,0.00,,---,0.16,VWS V14.01,2013-03-31 02:40:00,
2013-03-30 21:43:00,70.6,57.8,29.80,SE,144,2.0,6.0,64,0.00,,---,0.16,VWS V14.01,2013-03-31 02:43:00,
2013-03-30 21:49:00,70.3,58.0,29.80,SSE,163,2.0,6.0,65,0.00,,---,0.16,VWS V14.01,2013-03-31 02:49:00,
2013-03-30 21:52:00,70.2,58.3,29.80,SSE,154,3.0,6.0,66,0.00,,---,0.16,VWS V14.01,2013-03-31 02:52:00,
2013-03-30 21:55:00,70.1,58.7,29.80,SSE,158,1.0,6.0,67,0.00,,---,0.16,VWS V14.01,2013-03-31 02:55:00,
2013-03-30 21:58:00,69.9,58.5,29.80,SSE,160,1.0,6.0,67,0.00,,---,0.16,VWS V14.01,2013-03-31 02:58:00,
2013-03-30 22:01:00,69.7,58.3,29.80,SSE,160,3.0,6.0,67,0.00,,---,0.16,VWS V14.01,2013-03-31 03:01:00,
2013-03-30 22:05:00,69.4,58.4,29.80,SSE,160,1.0,4.0,68,0.00,,---,0.16,VWS V14.01,2013-03-31 03:05:00,
2013-03-30 22:08:00,69.3,58.7,29.80,SSE,163,0.0,4.0,69,0.00,,---,0.16,VWS V14.01,2013-03-31 03:08:00,
2013-03-30 22:11:00,69.1,58.5,29.80,South,171,1.0,4.0,69,0.00,,---,0.16,VWS V14.01,2013-03-31 03:11:00,
2013-03-30 22:14:00,69.0,58.8,29.80,SSE,156,1.0,5.0,70,0.00,,---,0.16,VWS V14.01,2013-03-31 03:14:00,
2013-03-30 22:17:00,68.8,58.6,29.80,SSE,167,1.0,5.0,70,0.00,,---,0.16,VWS V14.01,2013-03-31 03:17:00,
2013-03-30 22:20:00,68.7,58.9,29.80,South,189,5.0,5.0,71,0.00,,---,0.16,VWS V14.01,2013-03-31 03:20:00,
2013-03-30 22:29:00,68.5,59.1,29.80,South,172,2.0,5.0,72,0.00,,---,0.16,VWS V14.01,2013-03-31 03:29:00,
2013-03-30 22:31:00,68.4,59.0,29.80,South,172,1.0,5.0,72,0.00,,---,0.16,VWS V14.01,2013-03-31 03:31:00,
2013-03-30 22:35:00,68.2,59.2,29.81,South,172,0.0,2.0,73,0.00,,---,0.16,VWS V14.01,2013-03-31 03:35:00,
2013-03-30 22:41:00,67.9,59.3,29.81,South,172,0.0,3.0,74,0.00,,---,0.16,VWS V14.01,2013-03-31 03:41:00,
2013-03-30 22:47:00,67.7,59.1,29.80,South,172,1.0,3.0,74,0.00,,---,0.16,VWS V14.01,2013-03-31 03:47:00,
2013-03-30 22:50:00,67.7,59.5,29.81,South,171,0.0,4.0,75,0.00,,---,0.16,VWS V14.01,2013-03-31 03:50:00,
2013-03-30 22:53:00,67.7,59.5,29.81,South,171,2.0,4.0,75,0.00,,---,0.16,VWS V14.01,2013-03-31 03:53:00,
2013-03-30 22:59:00,67.6,59.0,29.81,South,171,0.0,4.0,74,0.00,,---,0.16,VWS V14.01,2013-03-31 03:59:00,
2013-03-30 23:02:00,67.4,59.2,29.81,South,171,0.0,0.0,75,0.00,,---,0.16,VWS V14.01,2013-03-31 04:02:00,
2013-03-30 23:08:00,67.2,59.4,29.81,South,171,1.0,3.0,76,0.00,,---,0.16,VWS V14.01,2013-03-31 04:08:00,
2013-03-30 23:11:00,67.2,59.4,29.81,South,171,1.0,4.0,76,0.00,,---,0.16,VWS V14.01,2013-03-31 04:11:00,
2013-03-30 23:14:00,67.2,59.4,29.81,South,171,0.0,4.0,76,0.00,,---,0.16,VWS V14.01,2013-03-31 04:14:00,
2013-03-30 23:17:00,67.2,59.0,29.81,South,170,0.0,4.0,75,0.00,,---,0.16,VWS V14.01,2013-03-31 04:17:00,
2013-03-30 23:20:00,67.0,58.8,29.81,South,170,0.0,4.0,75,0.00,,---,0.16,VWS V14.01,2013-03-31 04:20:00,
2013-03-30 23:23:00,67.0,59.2,29.81,South,170,0.0,4.0,76,0.00,,---,0.16,VWS V14.01,2013-03-31 04:23:00,
2013-03-30 23:27:00,66.8,59.0,29.81,South,170,0.0,4.0,76,0.00,,---,0.16,VWS V14.01,2013-03-31 04:27:00,
2013-03-30 23:33:00,66.7,59.3,29.81,South,170,0.0,1.0,77,0.00,,---,0.16,VWS V14.01,2013-03-31 04:33:00,
2013-03-30 23:36:00,66.7,59.3,29.81,South,170,0.0,1.0,77,0.00,,---,0.16,VWS V14.01,2013-03-31 04:36:00,
2013-03-30 23:39:00,66.8,59.4,29.81,South,170,0.0,1.0,77,0.00,,---,0.16,VWS V14.01,2013-03-31 04:39:00,
2013-03-30 23:42:00,66.7,59.3,29.81,South,170,0.0,1.0,77,0.00,,---,0.16,VWS V14.01,2013-03-31 04:42:00,
2013-03-30 23:45:00,66.3,58.9,29.81,South,170,2.0,2.0,77,0.00,,---,0.16,VWS V14.01,2013-03-31 04:45:00,
2013-03-30 23:48:00,65.8,58.8,29.81,South,170,2.0,2.0,78,0.00,,---,0.16,VWS V14.01,2013-03-31 04:48:00,
2013-03-30 23:54:00,64.9,58.2,29.81,SSE,165,2.0,3.0,79,0.00,,---,0.16,VWS V14.01,2013-03-31 04:54:00,